Flag for Tunisia Weather past 2 weeks in Tunis, Tunisia

Now
88 °F

Passing clouds.


Feels Like: 90 °F
Forecast: 82 / 110 °F
Wind: 13 mph from East

Location: Tunis-Carthage

Current Time: Aug 1, 2015 at 11:31:13 PM

Latest Report: Aug 1, 2015 at 10:30 PM


Visibility: 5 mi

Pressure: 29.92 "Hg

Humidity: 49%

Dew point: 66 °F

Location of TunisLocation

Historic Weather in Tunis — Graph

°F

Tunis temperature yesterday

Maximum temperature yesterday: 102 °F (at 11:30 AM)
Minimum temperature yesterday: 82 °F (at 11:00 PM)
Average temperature yesterday: 91 °F

Past Weeks' High & Low Weather Summary

 TemperatureHumidityPressure
High108 °F (Jul 30, 2:00 PM)94% (Jul 22, 3:30 AM)30.04 "Hg (Jul 22, 3:30 AM)
Low70 °F (Jul 21, 5:30 AM)16% (Jul 19, 12:30 PM)29.71 "Hg (Jul 30, 4:30 PM)
Average86 °F56%29.90 "Hg
* Reported Jul 17 10:00 PM — Aug 1 10:00 PM, Tunis, Weather by CustomWeather, © 2015

Note: Actual official high and low records may vary slightly from our data, if they occured in-between our weather recording intervals... More about our weather records

Advertising

Tunis weather history for previous 24 hours

 ConditionsComfort  
Time TempWeatherWind HumidityBarometerVisibility
10:00 PM
Sat, Aug 1
90 °FPassing clouds.16 mph36%29.92 "Hg5 mi
9:30 PM84 °FPassing clouds.20 mph51%29.89 "Hg5 mi
9:00 PM82 °FThunderstorms. Passing clouds.20 mph62%29.95 "Hg4 mi
8:30 PM77 °FThunderstorms. Passing clouds.20 mph83%30.01 "Hg4 mi
8:00 PM77 °FThunderstorms. Passing clouds.18 mph74%30.01 "Hg4 mi
7:30 PM86 °FThunderstorms. Passing clouds.14 mph62%30.01 "Hg5 mi
7:00 PM82 °FThunderstorms. Scattered clouds.17 mph79%29.95 "Hg5 mi
6:30 PM86 °FScattered clouds.14 mph70%29.89 "HgN/A
6:00 PM91 °FScattered clouds.7 mph56%29.86 "HgN/A
5:30 PM91 °FScattered clouds.12 mph59%29.86 "HgN/A
5:00 PM97 °FPassing clouds.6 mph44%29.83 "HgN/A
4:00 PM97 °FPassing clouds.12 mph44%29.86 "HgN/A
3:30 PM99 °FPassing clouds.12 mph39%29.86 "HgN/A
3:00 PM99 °FPassing clouds.12 mph42%29.86 "HgN/A
2:30 PM100 °FPassing clouds.12 mph35%29.86 "HgN/A
1:30 PM104 °FPassing clouds.8 mph28%29.86 "HgN/A
1:00 PM104 °FPassing clouds.8 mph28%29.89 "HgN/A
12:30 PM104 °FPassing clouds.5 mph24%29.89 "HgN/A
12:00 PM102 °FPassing clouds.5 mph26%29.89 "HgN/A
11:30 AM100 °FPassing clouds.5 mph27%29.89 "HgN/A
11:00 AM99 °FPassing clouds.3 mph31%29.89 "HgN/A
10:30 AM97 °FPassing clouds.3 mph32%29.89 "HgN/A
10:00 AM97 °FPassing clouds.3 mph34%29.89 "HgN/A
9:30 AM95 °FPassing clouds.2 mph36%29.89 "HgN/A
9:00 AM93 °FPassing clouds.No wind39%29.89 "HgN/A
8:30 AM90 °FPassing clouds.6 mph43%29.86 "HgN/A
8:00 AM88 °FPassing clouds.5 mph46%29.86 "HgN/A
7:30 AM86 °FPassing clouds.3 mph59%29.86 "HgN/A
7:00 AM82 °FPassing clouds.2 mph70%29.86 "HgN/A
6:30 AM82 °FPassing clouds.No wind70%29.86 "HgN/A
5:30 AM81 °FPassing clouds.3 mph79%29.83 "HgN/A
5:00 AM81 °FPassing clouds.5 mph84%29.83 "HgN/A
4:30 AM81 °FPassing clouds.5 mph84%29.83 "HgN/A
4:00 AM79 °FPassing clouds.3 mph89%29.83 "HgN/A
3:30 AM79 °FPassing clouds.No wind84%29.83 "HgN/A
3:00 AM79 °FPassing clouds.3 mph84%29.86 "HgN/A
2:00 AM81 °FPassing clouds.5 mph79%29.86 "HgN/A
1:00 AM81 °FPassing clouds.6 mph70%29.86 "HgN/A
12:30 AM81 °FPassing clouds.3 mph74%29.86 "HgN/A
12:00 AM81 °FPassing clouds.5 mph70%29.86 "HgN/A
11:30 PM
Fri, Jul 31
82 °FPassing clouds.5 mph70%29.86 "HgN/A
11:00 PM82 °FPassing clouds.2 mph62%29.86 "HgN/A
Weather by CustomWeather, © 2015

See weather overviewHow to use our weather pages